WA7RHK-2 Weather Reports


time (UTC)temp
F
wind
direction
speed
knots
gust
knots
rain 1hr
in
rain 24hr
in
rain mn
in
humidity
%
barometer
mb
20211017163055 68 143 0.0 4.3 0.00 0.00 0.00 46 1027.0
20211017161627 67 115 0.0 2.6 0.00 0.00 0.00 47 1027.2
20211017160101 67 122 0.0 3.5 0.00 0.00 0.00 43 1027.4
20211017154530 65 124 0.0 2.6 0.00 0.00 0.00 52 1027.4
20211017153035 64 86 0.9 2.6 0.00 0.00 0.00 56 1027.5
20211017151553 61 262 0.0 2.6 0.00 0.00 0.00 67 1027.7
20211017150104 59 257 0.0 1.7 0.00 0.00 0.00 72 1027.7
20211017144530 56 321 0.9 2.6 0.00 0.00 0.00 78 1027.5
20211017143008 54 276 0.0 2.6 0.00 0.00 0.00 78 1027.4
20211017141511 53 280 0.0 2.6 0.00 0.00 0.00 81 1027.3
20211017140003 51 260 0.0 1.7 0.00 0.00 0.00 84 1027.1
20211017134504 49 316 0.0 1.7 0.00 0.00 0.00 88 1027.0
20211017133210 48 325 0.0 0.9 0.00 0.00 0.00 88 1026.7
20211017131655 48 326 0.0 0.9 0.00 0.00 0.00 86 1026.6
20211017130105 48 326 0.0 0.9 0.00 0.00 0.00 84 1026.4
20211017124559 48 319 0.0 1.7 0.00 0.00 0.00 84 1026.4
20211017123219 48 325 0.0 2.6 0.00 0.00 0.00 87 1026.3
20211017121628 48 332 0.0 2.6 0.00 0.00 0.00 88 1026.2
20211017120115 48 345 0.9 2.6 0.00 0.00 0.00 89 1026.1
20211017114634 0 0.0 0.0 0.00 0.00 0.00 1026.2
20211017113125 0 0.0 0.0 0.00 0.00 0.00 1026.2
20211017111548 0 0.0 0.0 0.00 0.00 0.00 1026.0
20211017110111 0 0.0 0.0 0.00 0.00 0.00 1026.0
20211017104536 0 0.0 0.0 0.00 0.00 0.00 1025.8
20211017103050 0 0.0 0.0 0.00 0.00 0.00 1025.8
20211017101612 0 0.0 0.0 0.00 0.00 0.00 1025.8
20211017100047 0 0.0 0.0 0.00 0.00 0.00 1025.8
20211017094528 0 0.0 0.0 0.00 0.00 0.00 1025.9
20211017093008 0 0.0 0.0 0.00 0.00 0.00 1025.8
20211017091506 49 330 0.0 0.9 0.00 0.00 0.00 84 1026.0
20211017090004 50 323 0.0 0.9 0.00 0.00 0.00 84 1026.1
20211017084514 50 331 0.0 1.7 0.00 0.00 0.00 83 1026.0
20211017083011 50 314 0.0 0.9 0.00 0.00 0.00 83 1026.1
20211017081711 50 317 0.0 0.9 0.00 0.00 0.00 83 1026.2
20211017080141 50 317 0.0 0.0 0.00 0.00 0.00 83 1026.3
20211017074652 51 318 0.0 0.9 0.00 0.00 0.00 82 1026.2
20211017073128 51 318 0.0 0.9 0.00 0.00 0.00 81 1026.1
20211017071607 51 328 0.0 0.9 0.00 0.00 0.00 79 1026.1
20211017070126 52 321 0.0 0.9 0.00 0.00 0.00 78 1026.0
20211017064625 51 336 0.0 0.9 0.00 0.00 0.00 78 1026.0
20211017063103 51 298 0.0 0.9 0.00 0.00 0.00 75 1025.9
20211017061642 52 298 0.0 0.9 0.00 0.00 0.00 74 1025.8
20211017060053 52 298 0.0 0.9 0.00 0.00 0.00 72 1025.9
20211017054637 53 298 0.0 0.0 0.00 0.00 0.00 69 1025.8
20211017053130 53 298 0.0 0.9 0.00 0.00 0.00 66 1026.0
20211017051604 55 298 0.0 0.9 0.00 0.00 0.00 61 1026.0
20211017050112 55 304 0.0 1.7 0.00 0.00 0.00 59 1026.0
20211017044608 56 297 0.0 1.7 0.00 0.00 0.00 58 1025.9
20211017043039 56 266 0.0 0.0 0.00 0.00 0.00 58 1026.0
20211017041555 56 266 0.0 0.0 0.00 0.00 0.00 56 1026.0
20211017040033 58 266 0.0 0.0 0.00 0.00 0.00 53 1025.9
20211017034530 58 266 0.0 0.9 0.00 0.00 0.00 51 1025.7
20211017033052 59 311 0.0 0.0 0.00 0.00 0.00 50 1025.8
20211017031542 59 316 0.0 0.0 0.00 0.00 0.00 51 1025.7
20211017030041 59 309 0.0 0.9 0.00 0.00 0.00 50 1025.7
20211017024551 59 319 0.0 0.9 0.00 0.00 0.00 49 1025.6
20211017023103 59 320 0.0 0.0 0.00 0.00 0.00 49 1025.7
20211017021555 59 321 0.0 0.9 0.00 0.00 0.00 49 1025.6
20211017020037 59 320 0.0 0.0 0.00 0.00 0.00 49 1025.5
20211017014532 60 320 0.0 0.9 0.00 0.00 0.00 49 1025.4
20211017013044 60 320 0.0 1.7 0.00 0.00 0.00 49 1025.3
20211017011558 60 319 0.0 0.9 0.00 0.00 0.00 50 1025.2
20211017010106 61 285 0.0 0.0 0.00 0.00 0.00 48 1025.4
20211017004528 62 309 0.0 0.9 0.00 0.00 0.00 47 1025.1
20211017003049 63 277 0.0 0.9 0.00 0.00 0.00 46 1025.1
20211017001533 64 273 0.0 1.7 0.00 0.00 0.00 45 1024.8
20211017000036 65 300 0.0 2.6 0.00 0.00 0.00 43 1024.8
20211016234521 66 339 0.0 1.7 0.00 0.00 0.00 41 1024.8
20211016233036 67 335 0.0 6.1 0.00 0.00 0.00 38 1024.8
20211016231521 68 330 0.0 3.5 0.00 0.00 0.00 36 1024.7
20211016230024 69 1 0.9 7.0 0.00 0.00 0.00 36 1024.7
20211016224521 69 236 0.0 5.2 0.00 0.00 0.00 36 1024.9
20211016223032 70 328 0.9 6.1 0.00 0.00 0.00 34 1024.9
20211016221522 71 293 0.0 4.3 0.00 0.00 0.00 35 1024.9
20211016220021 71 281 0.9 7.8 0.00 0.00 0.00 33 1025.1
20211016214531 71 319 1.7 11.3 0.00 0.00 0.00 33 1025.1
20211016213030 71 25 1.7 7.8 0.00 0.00 0.00 32 1025.1
20211016211516 71 3 0.0 8.7 0.00 0.00 0.00 34 1025.1
20211016210039 72 314 0.0 6.1 0.00 0.00 0.00 34 1025.1
20211016204513 71 309 0.9 6.1 0.00 0.00 0.00 34 1025.3
20211016203029 72 301 0.9 6.1 0.00 0.00 0.00 35 1025.3
20211016201514 72 283 0.9 6.1 0.00 0.00 0.00 35 1025.3
20211016200019 72 354 0.0 4.3 0.00 0.00 0.00 36 1025.6
20211016194523 71 336 0.0 7.0 0.00 0.00 0.00 34 1025.7
20211016193009 72 329 0.0 5.2 0.00 0.00 0.00 34 1025.8
20211016191522 72 108 0.0 3.5 0.00 0.00 0.00 37 1026.1
20211016190037 71 40 1.7 9.6 0.00 0.00 0.00 36 1026.3
20211016184505 71 89 0.9 7.0 0.00 0.00 0.00 37 1026.5
20211016183003 71 65 0.0 6.1 0.00 0.00 0.00 41 1026.9
20211016181503 70 27 0.0 6.1 0.00 0.00 0.00 41 1027.1
20211016180211 70 61 0.9 7.8 0.00 0.00 0.00 38 1027.4
20211016174622 70 324 0.0 6.1 0.00 0.00 0.00 39 1027.6
20211016173150 69 315 3.5 11.3 0.00 0.00 0.00 37 1027.7
20211016171639 69 307 0.9 5.2 0.00 0.00 0.00 39 1028.0
20211016170131 68 34 1.7 7.8 0.00 0.00 0.00 41 1028.0
20211016164630 68 356 2.6 7.8 0.00 0.00 0.00 46 1028.1